• In Hungary
  • List of Countries
  • For 7 days
  • Water Temperature
  • Satellite Maps
  • Weather Map
  • News
  • Weather Widgets
  • user-avatar
    Login

    Hourly Weather Montana

    Today, 24 October, Tuesday

    Time Temperature Precipitation Wind Pressure Humidity
    00:00 +9°C° 0.7 mm 3 mps 725 mmHg 88%
    01:00 +9°C° 0.7 mm 3 mps 725 mmHg 88%
    02:00 +7°C° 0 mm 5 mps 725 mmHg 86%
    03:00 +7°C° 0.4 mm 4 mps 724 mmHg 87%
    04:00 +8°C° 0.4 mm 3 mps 724 mmHg 88%
    05:00 +8°C° 0.4 mm 2 mps 724 mmHg 88%
    06:00 +8°C° 0.3 mm 2 mps 724 mmHg 88%
    07:00 +8°C° 0.3 mm 2 mps 724 mmHg 88%
    08:00 +9°C° 0.3 mm 2 mps 725 mmHg 88%
    09:00 +9°C° 0.1 mm 2 mps 725 mmHg 86%
    10:00 +10°C° 0.1 mm 2 mps 725 mmHg 84%
    11:00 +10°C° 0.1 mm 2 mps 725 mmHg 82%
    12:00 +12°C° 0.1 mm 2 mps 726 mmHg 82%
    13:00 +11°C° 0.1 mm 3 mps 726 mmHg 81%
    14:00 +12°C° 0.1 mm 3 mps 726 mmHg 81%
    15:00 +12°C° 0.4 mm 2 mps 727 mmHg 83%
    16:00 +12°C° 0.4 mm 2 mps 727 mmHg 85%
    17:00 +12°C° 0.4 mm 2 mps 728 mmHg 87%
    18:00 +12°C° 0.9 mm 2 mps 729 mmHg 89%
    19:00 +10°C° 0.9 mm 2 mps 729 mmHg 90%
    20:00 +10°C° 0.9 mm 2 mps 730 mmHg 92%
    21:00 +10°C° 1.1 mm 3 mps 731 mmHg 92%
    22:00 +10°C° 1.1 mm 3 mps 732 mmHg 92%
    23:00 +10°C° 1.1 mm 4 mps 732 mmHg 92%

    Tomorrow, 25 October, Wednesday

    Time Temperature Precipitation Wind Pressure Humidity
    00:00 +10°C° 0.5 mm 4 mps 733 mmHg 91%
    01:00 +10°C° 0.5 mm 4 mps 734 mmHg 91%
    02:00 +9°C° 0.5 mm 3 mps 734 mmHg 91%
    03:00 +9°C° 0.4 mm 3 mps 735 mmHg 91%
    04:00 +9°C° 0.4 mm 3 mps 735 mmHg 91%
    05:00 +9°C° 0.4 mm 3 mps 736 mmHg 92%
    06:00 +8°C° 0.6 mm 3 mps 737 mmHg 91%
    07:00 +8°C° 0.6 mm 3 mps 737 mmHg 91%
    08:00 +8°C° 0.6 mm 3 mps 738 mmHg 91%
    09:00 +8°C° 0.5 mm 2 mps 739 mmHg 90%
    10:00 +8°C° 0.5 mm 2 mps 739 mmHg 88%
    11:00 +8°C° 0.5 mm 2 mps 740 mmHg 87%
    12:00 +8°C° 0.1 mm 2 mps 740 mmHg 85%
    13:00 +9°C° 0.1 mm 2 mps 740 mmHg 83%
    14:00 +9°C° 0.1 mm 2 mps 740 mmHg 81%
    15:00 +9°C° 0 mm 2 mps 741 mmHg 81%
    16:00 +10°C° 0 mm 1 mps 741 mmHg 82%
    17:00 +10°C° 0 mm 1 mps 741 mmHg 82%
    18:00 +9°C° 0 mm 1 mps 742 mmHg 84%
    19:00 +8°C° 0 mm 1 mps 742 mmHg 86%
    20:00 +8°C° 0 mm 1 mps 742 mmHg 88%
    21:00 +8°C° 0 mm 1 mps 743 mmHg 88%
    22:00 +8°C° 0 mm 1 mps 743 mmHg 87%
    23:00 +7°C° 0 mm 1 mps 743 mmHg 87%

    Day after tomorrow, 26 October, Thursday

    Time Temperature Precipitation Wind Pressure Humidity
    00:00 +7°C° 0 mm 1 mps 743 mmHg 86%
    01:00 +7°C° 0 mm 1 mps 743 mmHg 86%
    02:00 +6°C° 0 mm 0 mps 743 mmHg 85%
    03:00 +7°C° 0 mm 1 mps 743 mmHg 85%
    04:00 +7°C° 0 mm 1 mps 742 mmHg 85%
    05:00 +7°C° 0 mm 1 mps 742 mmHg 85%
    06:00 +8°C° 0 mm 1 mps 742 mmHg 83%
    07:00 +8°C° 0 mm 1 mps 743 mmHg 82%
    08:00 +9°C° 0 mm 1 mps 743 mmHg 81%
    09:00 +11°C° 0 mm 1 mps 743 mmHg 74%
    10:00 +13°C° 0 mm 1 mps 743 mmHg 67%
    11:00 +15°C° 0 mm 1 mps 742 mmHg 60%
    12:00 +16°C° 0 mm 1 mps 742 mmHg 57%
    13:00 +18°C° 0 mm 1 mps 741 mmHg 55%
    14:00 +18°C° 0 mm 2 mps 741 mmHg 53%
    15:00 +18°C° 0 mm 1 mps 741 mmHg 57%
    16:00 +16°C° 0 mm 1 mps 740 mmHg 62%
    17:00 +15°C° 0 mm 1 mps 740 mmHg 66%
    18:00 +14°C° 0 mm 1 mps 740 mmHg 70%
    19:00 +13°C° 0 mm 1 mps 740 mmHg 73%
    20:00 +12°C° 0 mm 1 mps 741 mmHg 77%
    21:00 +12°C° 0 mm 1 mps 741 mmHg 78%
    22:00 +12°C° 0 mm 1 mps 741 mmHg 79%
    23:00 +11°C° 0 mm 1 mps 741 mmHg 80%

    27 October, Friday

    Time Temperature Precipitation Wind Pressure Humidity
    00:00 +11°C° 0 mm 1 mps 740 mmHg 80%
    01:00 +11°C° 0 mm 1 mps 740 mmHg 80%
    02:00 +11°C° 0 mm 1 mps 740 mmHg 80%
    03:00 +10°C° 0 mm 1 mps 739 mmHg 80%
    04:00 +10°C° 0 mm 1 mps 739 mmHg 80%
    05:00 +10°C° 0 mm 1 mps 739 mmHg 80%
    06:00 +10°C° 0 mm 1 mps 738 mmHg 78%
    07:00 +11°C° 0 mm 1 mps 738 mmHg 77%
    08:00 +11°C° 0 mm 1 mps 738 mmHg 75%
    09:00 +13°C° 0 mm 1 mps 738 mmHg 67%
    10:00 +16°C° 0 mm 1 mps 737 mmHg 58%
    11:00 +19°C° 0 mm 1 mps 737 mmHg 50%
    12:00 +19°C° 0 mm 2 mps 736 mmHg 48%
    13:00 +20°C° 0 mm 2 mps 736 mmHg 46%
    14:00 +21°C° 0 mm 2 mps 735 mmHg 44%
    15:00 +20°C° 0 mm 2 mps 734 mmHg 49%
    16:00 +20°C° 0 mm 1 mps 733 mmHg 53%
    17:00 +19°C° 0 mm 1 mps 733 mmHg 58%
    18:00 +18°C° 0 mm 1 mps 732 mmHg 59%
    19:00 +16°C° 0 mm 1 mps 732 mmHg 61%
    20:00 +15°C° 0 mm 1 mps 732 mmHg 63%
    21:00 +15°C° 0 mm 2 mps 731 mmHg 63%
    22:00 +15°C° 0 mm 2 mps 731 mmHg 63%
    23:00 +14°C° 0 mm 2 mps 731 mmHg 63%

    28 October, Saturday

    Time Temperature Precipitation Wind Pressure Humidity
    00:00 +14°C° 0 mm 2 mps 730 mmHg 62%
    01:00 +14°C° 0 mm 2 mps 730 mmHg 62%
    02:00 +14°C° 0 mm 2 mps 730 mmHg 61%
    03:00 +14°C° 0 mm 2 mps 730 mmHg 63%
    04:00 +13°C° 0 mm 3 mps 730 mmHg 65%
    05:00 +12°C° 0 mm 3 mps 730 mmHg 67%
    06:00 +12°C° 0.3 mm 4 mps 730 mmHg 71%
    07:00 +11°C° 0.3 mm 4 mps 730 mmHg 75%
    08:00 +10°C° 0.3 mm 5 mps 731 mmHg 79%
    09:00 +10°C° 0.3 mm 5 mps 731 mmHg 77%
    10:00 +10°C° 0.3 mm 5 mps 731 mmHg 76%
    11:00 +10°C° 0.3 mm 5 mps 731 mmHg 74%
    12:00 +10°C° 0.1 mm 5 mps 731 mmHg 72%
    13:00 +10°C° 0.1 mm 5 mps 731 mmHg 69%
    14:00 +10°C° 0.1 mm 5 mps 731 mmHg 67%
    15:00 +11°C° 0 mm 4 mps 731 mmHg 68%
    16:00 +10°C° 0 mm 4 mps 731 mmHg 68%
    17:00 +10°C° 0 mm 3 mps 731 mmHg 69%
    18:00 +9°C° 0 mm 3 mps 731 mmHg 72%
    19:00 +9°C° 0 mm 3 mps 731 mmHg 75%
    20:00 +8°C° 0 mm 2 mps 731 mmHg 78%
    21:00 +8°C° 0 mm 2 mps 731 mmHg 79%
    22:00 +7°C° 0 mm 2 mps 731 mmHg 81%
    23:00 +7°C° 0 mm 2 mps 731 mmHg 82%

    29 October, Sunday

    Time Temperature Precipitation Wind Pressure Humidity
    00:00 +6°C° 0 mm 2 mps 731 mmHg 83%
    01:00 +6°C° 0 mm 2 mps 731 mmHg 84%
    02:00 +6°C° 0 mm 2 mps 731 mmHg 85%
    03:00 +6°C° 0 mm 2 mps 731 mmHg 85%
    04:00 +5°C° 0 mm 2 mps 731 mmHg 85%
    05:00 +5°C° 0 mm 2 mps 730 mmHg 85%
    06:00 +5°C° 0 mm 2 mps 730 mmHg 84%
    07:00 +6°C° 0 mm 2 mps 730 mmHg 83%
    08:00 +6°C° 0 mm 2 mps 730 mmHg 82%
    09:00 +9°C° 0 mm 1 mps 730 mmHg 73%
    10:00 +11°C° 0 mm 1 mps 730 mmHg 64%
    11:00 +12°C° 0 mm 1 mps 729 mmHg 55%
    12:00 +13°C° 0 mm 1 mps 729 mmHg 51%
    13:00 +14°C° 0 mm 1 mps 728 mmHg 46%
    14:00 +15°C° 0 mm 1 mps 727 mmHg 42%
    15:00 +14°C° 0 mm 1 mps 727 mmHg 46%
    16:00 +13°C° 0 mm 1 mps 727 mmHg 50%
    17:00 +12°C° 0 mm 1 mps 727 mmHg 54%
    18:00 +12°C° 0 mm 1 mps 727 mmHg 57%
    19:00 +11°C° 0 mm 1 mps 727 mmHg 60%
    20:00 +10°C° 0 mm 1 mps 727 mmHg 63%
    21:00 +10°C° 0 mm 1 mps 727 mmHg 64%
    22:00 +10°C° 0 mm 1 mps 728 mmHg 65%
    23:00 +10°C° 0 mm 1 mps 728 mmHg 67%

    30 October, Monday

    Time Temperature Precipitation Wind Pressure Humidity
    00:00 +10°C° 0.1 mm 1 mps 728 mmHg 68%
    01:00 +10°C° 0.1 mm 1 mps 728 mmHg 69%
    02:00 +9°C° 0.1 mm 1 mps 728 mmHg 70%
    03:00 +9°C° 0.4 mm 1 mps 728 mmHg 73%
    04:00 +9°C° 0.4 mm 1 mps 728 mmHg 77%
    05:00 +8°C° 0.4 mm 2 mps 728 mmHg 80%
    06:00 +7°C° 0.7 mm 2 mps 729 mmHg 82%
    07:00 +7°C° 0.7 mm 3 mps 729 mmHg 83%
    08:00 +7°C° 0.7 mm 3 mps 729 mmHg 85%
    09:00 +6°C° 0.7 mm 4 mps 730 mmHg 81%
    10:00 +6°C° 0.7 mm 4 mps 730 mmHg 77%
    11:00 +6°C° 0.7 mm 5 mps 731 mmHg 73%
    12:00 +6°C° 0.5 mm 5 mps 731 mmHg 71%
    13:00 +6°C° 0.5 mm 5 mps 730 mmHg 70%
    14:00 +6°C° 0.5 mm 5 mps 730 mmHg 68%
    15:00 +5°C° 0.3 mm 4 mps 731 mmHg 69%
    16:00 +5°C° 0.3 mm 4 mps 731 mmHg 71%
    17:00 +5°C° 0.3 mm 3 mps 731 mmHg 72%
    18:00 +5°C° 0.1 mm 3 mps 732 mmHg 73%
    19:00 +4°C° 0.1 mm 3 mps 732 mmHg 75%
    20:00 +4°C° 0.1 mm 3 mps 733 mmHg 76%
    21:00 +3°C° 0 mm 3 mps 733 mmHg 77%
    22:00 +3°C° 0 mm 3 mps 733 mmHg 78%
    23:00 +2°C° 0 mm 3 mps 733 mmHg 80%
    Show more